Location: Pinawa
(50.1500°N, 95.8830°W)
Time: 00:19:00
(UTC-05:00)

Daily predictions for brighter satellites

Satellite Brightness Start Highest point End
(mag) Time Altitude Azimuth Time Altitude Azimuth Time Altitude Azimuth
Terra 3.7 00:09:58 25° WNW 00:09:58 25° WNW 00:12:40 10° NNW
Cosmos 2297 Rocket 3.2 00:08:29 10° NNW 00:12:32 41° N 00:12:32 41° N
Cosmos 2369 Rocket 4.1 00:25:00 14° W 00:28:39 25° NW 00:33:17 10° NNE
Cosmos 2227 Rocket 3.4 00:34:38 10° NNW 00:38:07 39° NNW 00:38:07 39° NNW
Cosmos 1943 Rocket 3.8 00:51:45 29° NW 00:52:11 29° NW 00:57:05 10° NNE
ATLAS 5 CENTAUR R/B 4.4 00:53:01 10° NW 00:57:00 21° N 01:01:16 10° NE
Cosmos 2263 Rocket 4.4 01:00:44 10° N 01:04:34 18° NE 01:05:55 17° NE
CZ-4C R/B 4.0 01:18:40 19° WNW 01:21:55 30° NNW 01:27:42 10° NE
CZ-2C R/B 4.2 01:32:14 10° N 01:34:57 31° N 01:34:57 31° N
ATLAS 3B R/B 3.5 01:41:20 48° NW 01:42:02 49° NW 01:48:55 10° NE
USA 215 3.9 01:39:03 10° ENE 01:45:17 50° N 01:51:32 10° WNW
Lacrosse 4 Rocket 4.4 01:52:48 10° N 01:54:02 14° NNE 01:54:02 14° NNE
Cosmos 2297 Rocket 4.4 01:52:54 10° NW 01:54:20 17° NW 01:54:20 17° NW
COSMOS 2455 3.8 02:10:04 44° N 02:10:04 44° N 02:14:29 10° NNE
Cosmos 2322 Rocket 4.2 02:14:58 19° ENE 02:14:58 19° ENE 02:17:24 10° NE
NOSS 3-2 (A) 4.1 02:18:47 56° N 02:18:47 56° N 02:24:29 10° NE
SL-16 R/B 4.1 02:22:22 22° ENE 02:22:22 22° ENE 02:25:15 10° NE
Cosmos 1697 Rocket 3.8 02:23:59 41° NNE 02:23:59 41° NNE 02:27:34 10° NNE
SL-16 R/B 4.0 02:21:34 27° E 02:23:17 31° ENE 02:28:37 10° N
Cosmos 2360 Rocket 4.4 02:42:22 16° E 02:42:22 16° E 02:45:20 10° ENE
Cosmos 1980 Rocket 3.1 02:43:56 46° NNE 02:43:56 46° NNE 02:47:52 10° NNE
ATLAS 5 CENTAUR R/B 4.1 02:38:40 10° NW 02:43:27 28° NNE 02:48:38 10° E
Cosmos 2263 Rocket 3.3 02:44:00 10° NNW 02:47:34 39° NNW 02:47:34 39° NNW
NOSS 3-2 (C) 4.1 03:08:24 48° NW 03:08:50 48° NNW 03:15:36 10° NE
CENTAUR R/B 2.6 03:10:12 77° ENE 03:10:12 77° ENE 03:16:49 10° NE
CZ-4C R/B 4.5 03:07:11 10° NW 03:12:26 26° N 03:18:17 10° ENE
Cosmos 1553 Rocket 4.2 03:18:34 62° NW 03:18:34 62° NW 03:24:15 10° N
USA 215 3.7 03:21:24 10° E 03:27:48 59° NNE 03:34:11 10° WNW
CBERS-1 4.5 03:24:46 10° NNE 03:28:57 59° NNE 03:28:57 59° NNE
S3M 4.3 03:31:04 52° NW 03:31:04 52° NW 03:36:18 10° N
ATLAS 3B R/B 4.4 03:28:31 11° WNW 03:34:25 28° N 03:40:16 10° NE
Resurs 1-4 Rocket 2.8 03:29:52 10° NNE 03:34:56 45° E 03:35:04 45° ESE
Cosmos 1992 Rocket 4.5 03:38:55 55° N 03:38:55 55° N 03:43:12 10° NNE
Cosmos 2315 Rocket 3.9 03:45:01 74° SSE 03:45:32 81° E 03:51:47 10° NNE
Cosmos 1709 Rocket 3.9 03:41:34 10° NNW 03:47:33 70° WNW 03:47:33 70° WNW
CZ-2D R/B 2.5 03:42:26 10° NNE 03:47:52 57° E 03:48:20 55° ESE
USA 81 4.3 03:57:18 57° NW 03:57:18 57° NW 04:01:48 10° N
Cosmos 2322 Rocket 2.2 03:56:46 69° NW 03:56:46 69° NW 04:02:17 10° NNE
Cosmos 883 Rocket 4.5 04:01:46 61° W 04:01:58 61° WNW 04:08:09 10° N
Cosmos 2074 Rocket 4.1 03:56:44 10° N 04:03:01 72° ENE 04:05:53 34° SSE
SL-16 R/B 2.2 04:04:14 64° WNW 04:04:22 64° WNW 04:10:02 10° NNE
Cosmos 1378 Rocket 4.4 04:06:26 41° NNW 04:06:26 41° NNW 04:09:27 10° N
Cosmos 1844 Rocket 3.0 03:59:58 10° NNW 04:05:33 63° ENE 04:11:04 10° SE
Cosmos 2219 Rocket 4.3 04:02:20 11° SE 04:05:52 19° E 04:09:41 10° ENE
Cosmos 1867 4.3 04:00:50 10° NW 04:06:13 52° NE 04:11:31 10° ESE
SL-16 R/B 2.5 04:06:39 60° W 04:06:39 60° W 04:12:46 10° NNW
Cosmos 1697 Rocket 4.3 04:05:42 21° NW 04:06:42 22° NW 04:11:04 10° NNE
NPP 4.1 04:01:57 10° N 04:06:51 48° WNW 04:06:51 48° WNW
Spot 4 Rocket 3.9 04:02:31 10° NNE 04:07:43 84° WNW 04:07:47 84° W
ADEOS 3.4 04:02:59 10° NNE 04:08:16 86° ESE 04:08:35 79° S
ARIANE 5 R/B 2.4 04:03:57 10° NNE 04:09:08 83° ESE 04:09:28 77° SSE
Genesis I 4.4 04:11:16 39° N 04:11:16 39° N 04:14:07 10° NNE
Cosmos 1455 Rocket 3.2 04:10:54 10° N 04:15:20 70° ENE 04:15:29 69° E
Meteor 1-12 Rocket 4.3 04:10:13 10° N 04:15:55 78° ENE 04:18:41 32° SSE
ERS-1 4.4 04:12:48 10° N 04:17:52 70° WNW 04:17:56 70° WNW
Okean O Rocket 4.0 04:15:42 10° NE 04:19:00 20° E 04:22:17 10° SE
Okean 1 4.0 04:19:28 49° ESE 04:19:44 49° E 04:23:41 10° NNE
COSMOS 2428 3.7 04:17:41 28° SSE 04:19:58 40° ESE 04:25:15 10° NE
SL-08 ROCKET BODY 4.2 04:16:00 10° NNW 04:21:52 75° W 04:23:10 55° SSW
CZ-2D R/B 4.1 04:17:53 10° NNE 04:22:16 54° E 04:23:01 47° SE
Cosmos 2360 Rocket 2.1 04:24:08 60° SSW 04:25:15 86° ESE 04:30:57 10° NNE
Cosmos 1980 Rocket 3.7 04:25:41 22° WNW 04:26:54 24° NW 04:31:28 10° NNE
Cosmos 1975 Rocket 3.3 04:28:07 55° NW 04:28:07 55° NW 04:31:52 10° N
Cosmos 1340 3.2 04:28:09 54° E 04:28:11 54° E 04:31:54 10° NNE
Cosmos 2278 Rocket 3.3 04:23:25 10° NNW 04:28:54 46° NE 04:34:19 10° SE
ATLAS 5 CENTAUR R/B 2.5 04:23:16 10° NW 04:29:03 72° NE 04:35:26 10° SE
Cosmos 2263 Rocket 4.3 04:28:43 10° NW 04:29:15 12° NW 04:29:15 12° NW
Cosmos 1975 2.9 04:29:02 10° N 04:32:38 68° NNW 04:32:38 68° NNW
Cosmos 1812 3.0 04:37:35 56° NNW 04:37:35 56° NNW 04:40:52 10° N
Cosmos 2237 Rocket 4.4 04:34:09 10° SSE 04:38:17 21° E 04:42:25 10° NE
Cosmos 1666 4.3 04:35:50 10° N 04:39:26 35° ENE 04:43:00 10° SE
SL-8 R/B 3.8 04:40:14 54° S 04:40:14 54° S 04:44:39 10° ESE
IRS-1D 3.6 04:35:32 10° N 04:40:21 53° WNW 04:40:52 50° W
ADEOS Rocket 2.7 04:35:23 10° NNE 04:40:55 72° WNW 04:42:30 47° SW
Cosmos 2184 Rocket 3.9 04:36:58 10° NNW 04:43:07 64° W 04:46:01 32° SSW
Landsat 4 4.1 04:46:32 48° NW 04:46:32 48° NW 04:49:25 10° NNW
Cosmos 1536 Rocket 3.7 04:45:55 39° S 04:47:30 74° E 04:52:00 10° NNE
COBE Rocket 4.0 04:47:51 10° N 04:52:59 68° WNW 04:54:42 41° SW
Cosmos 1743 2.7 04:50:50 10° N 04:54:43 80° E 04:56:40 28° SSE
CZ-2C R/B 4.5 04:54:09 10° SE 04:58:33 52° ENE 05:02:54 10° N
CENTAUR R/B 3.7 04:57:22 21° WNW 05:01:10 37° NNW 05:08:01 10° NE
CZ-4C R/B 3.8 04:56:12 10° NW 05:02:37 46° NNE 05:09:51 10° ESE
Cosmos 2333 Rocket 3.2 05:01:46 11° S 05:06:55 44° ESE 05:12:20 10° NE
ERBS 3.0 05:05:52 24° NW 05:07:45 56° NNE 05:11:12 10° ESE
MTI 4.3 05:06:52 10° SSE 05:10:07 61° ENE 05:13:23 10° N
USA 215 3.2 05:04:12 10° SE 05:10:44 74° SW 05:17:18 10° WNW
Cosmos 2322 3.9 05:08:32 33° WSW 05:10:56 55° NW 05:16:35 10° NNE
Cosmos 1500 4.5 05:09:42 10° NNW 05:12:01 25° WNW 05:12:01 25° WNW
Resurs 1-4 Rocket 3.0 05:10:01 10° N 05:14:38 32° WNW 05:16:09 27° W
UNKNOWN OBJECT B 3.4 05:12:07 10° N 05:15:32 34° WNW 05:15:45 34° WNW
Cosmos 2298 Rocket 4.0 05:10:13 10° NNW 05:15:35 84° WSW 05:20:56 10° SSE
Cosmos 2154 Rocket 3.9 05:11:29 10° NNW 05:17:36 65° W 05:23:43 10° S
Aureole 2 Rocket 4.3 05:14:56 10° SSE 05:17:54 27° ESE 05:20:41 10° NE
Okean 1-7 Rocket 4.2 05:16:30 10° S 05:20:55 58° E 05:25:18 10° NNE
MOS 1 Rocket 3.1 05:16:20 10° N 05:21:03 72° WNW 05:23:48 23° SSW
USA 229 DEB 4.1 05:17:12 16° SSW 05:22:42 62° SE 05:29:34 10° NE
USA 229 4.1 05:17:17 16° SSW 05:22:48 62° SE 05:29:40 10° NE
Cosmos 1844 3.9 05:18:15 10° NW 05:23:48 49° WSW 05:29:16 10° S
EO 1 Del DPAF 3.1 05:21:41 10° S 05:25:32 78° WSW 05:29:26 10° NNW
Cosmos 1238 Rocket 2.0 05:24:35 38° SSW 05:25:36 79° WNW 05:28:47 10° N
ATLAS 3B R/B 4.3 05:21:00 10° NW 05:27:15 32° NNE 05:33:11 10° E
CZ-2D R/B 3.3 05:23:03 10° N 05:27:37 28° WNW 05:29:40 22° W
Cosmos 2333 4.2 05:26:32 21° SW 05:30:23 76° WNW 05:36:10 10° NNE
SL-8 Rocket 4.1 05:25:02 10° N 05:31:18 80° E 05:37:28 10° SSE
CZ-4B R/B 3.5 05:26:52 10° NNE 05:32:33 74° ESE 05:38:06 10° S
ADEOS II 2.2 05:27:52 10° NNE 05:33:10 79° ESE 05:38:26 10° S
Nadezhda 1 Rocket 4.2 05:31:51 19° SW 05:35:57 47° WNW 05:41:50 10° N
Cosmos 2208 Rocket 4.2 05:32:55 21° SW 05:36:26 57° WNW 05:41:49 10° NNE
SL-16 R/B 4.3 05:32:22 10° SSE 05:36:57 26° ESE 05:41:35 10° NE
CZ-4B DEB 4.3 05:32:08 10° NNE 05:37:45 81° ESE 05:43:18 10° SSW
Okean 2 4.3 05:36:27 10° S 05:40:30 52° E 05:44:36 10° NNE
Cosmos 1025 Rocket 3.3 05:36:09 10° S 05:40:31 73° E 05:44:57 10° NNE
Cosmos 2322 Rocket 3.9 05:38:35 12° WNW 05:41:47 19° NW 05:45:42 10° N
Cosmos 990 Rocket 3.9 05:36:47 10° NNW 05:41:59 75° WSW 05:47:07 10° SSE
Cosmos 1980 4.0 05:40:05 10° SSW 05:45:41 68° ESE 05:51:18 10° NNE
Cosmos 2181 Rocket 4.0 05:39:50 10° S 05:46:06 83° W 05:52:31 10° N
Cosmos 1726 Rocket 3.8 05:42:02 10° N 05:46:31 74° ENE 05:50:58 10° SSE
ARIANE 5 R/B 4.1 05:44:11 10° NNW 05:47:39 19° NW 05:49:49 15° W
Cosmos 1844 Rocket 3.6 05:44:32 10° NW 05:49:00 25° WSW 05:53:28 10° SSW
Cosmos 2219 Rocket 2.1 05:44:05 13° SSW 05:49:09 80° WNW 05:54:48 10° NNE
CZ-4B R/B 2.7 05:45:52 10° N 05:49:26 57° WNW 05:52:40 13° SSW
SL-16 R/B 4.0 05:46:05 11° WNW 05:49:39 18° NW 05:53:29 10° N
Cosmos 1867 4.1 05:44:43 10° NW 05:49:41 36° WSW 05:54:35 10° S
NOSS 0 Rocket 4.1 05:44:18 10° SSW 05:50:27 77° ESE 05:56:38 10° NNE
SL-16 R/B 4.3 05:51:43 11° W 05:51:43 11° W 05:53:05 10° WNW
COSMO-SKYMED 1 4.1 05:49:03 10° SE 05:53:06 40° ENE 05:57:10 10° N
Cosmos 1437 3.1 05:50:10 10° S 05:53:25 66° E 05:56:41 10° NNE
Okean O Rocket 1.8 05:51:20 10° N 05:55:42 54° WNW 06:00:03 10° SSW
Meteor 2-9 Rocket 4.3 05:50:13 10° NNW 05:55:46 55° W 06:01:08 10° S
USA 116 4.2 05:51:44 10° SSE 05:56:19 85° WSW 06:01:28 10° NNW
Cosmos 468 Rocket 4.0 05:51:11 10° SSW 05:56:22 81° WNW 06:01:41 10° NNE
Meteor 1-13 Rocket 4.4 05:50:59 10° SSW 05:56:24 51° WNW 06:01:58 10° N
Cosmos 332 Rocket 4.4 05:51:51 10° S 05:56:40 58° ESE 06:01:28 10° NNE
Cosmos 1898 Rocket 4.1 05:53:59 10° NW 05:58:38 34° WSW 06:03:15 10° SSW
IRAS Rocket 4.2 05:55:48 10° NNE 06:01:22 80° WNW 06:06:56 10° SSW
Cosmos 2150 Rocket 4.4 05:56:48 10° NW 06:01:46 42° WSW 06:06:46 10° S
Cosmos 2341 Rocket 4.4 05:57:15 10° NNW 06:03:02 41° W 06:08:45 10° SSW
Cosmos 1892 Rocket 4.0 05:59:35 10° S 06:03:55 67° E 06:08:18 10° NNE
COSMOS 2428 3.3 05:59:43 14° WSW 06:04:14 43° NW 06:09:41 10° NNE
Cosmos 2218 Rocket 4.0 05:58:06 10° NNW 06:04:29 73° W 06:10:46 10° S
BREEZE M DEB (TANK) 4.0 05:54:33 10° WNW 06:06:23 44° SW 06:10:18 10° SSE
Cosmos 1125 Rocket 3.9 06:02:01 10° NNW 06:07:19 70° ENE 06:12:36 10° SSE
Thor Agena Rocket 3.5 06:03:36 10° SSE 06:08:39 88° ENE 06:13:45 10° NNW
Cosmos 2360 Rocket 3.6 06:05:55 12° W 06:10:00 24° NW 06:14:32 10° NNE
Cosmos 2278 Rocket 2.7 06:07:44 10° NW 06:12:54 37° WSW 06:18:02 10° S
ATLAS 5 CENTAUR R/B 3.1 06:08:23 10° WNW 06:13:31 30° WSW 06:19:01 10° S
Cosmos 1666 4.0 06:11:53 10° NW 06:14:55 22° W 06:17:57 10° SW
Okean-O 2.9 06:10:41 10° NNE 06:15:09 75° ESE 06:19:35 10° S
Cosmos 1763 Rocket 3.5 06:13:29 10° SSW 06:18:35 88° ESE 06:23:47 10° NNE
Cosmos 1515 3.9 06:15:33 10° S 06:19:22 75° E 06:23:15 10° NNE
Cosmos 1441 Rocket 3.6 06:16:20 10° S 06:20:18 73° E 06:24:19 10° NNE
Meteor 1-23 Rocket 4.4 06:15:55 10° SSW 06:21:38 61° WNW 06:27:20 10° N
Cosmos 2237 Rocket 2.2 06:16:02 10° SW 06:21:44 76° WNW 06:27:29 10° NNE
Cosmos 1937 Rocket 4.3 06:18:19 10° NW 06:22:55 30° W 06:27:29 10° SSW
PSLV R/B 4.2 06:22:27 10° N 06:26:28 37° WNW 06:30:29 10° SW
Cosmos 405 Rocket 3.2 06:26:46 10° SW 06:30:38 43° WNW 06:34:28 10° N
Cosmos 2297 3.9 06:26:18 10° NW 06:31:54 54° WSW 06:37:26 10° S
Cosmos 405 3.1 06:30:34 10° NNW 06:34:02 55° W 06:37:31 10° S
Cosmos 841 Rocket 3.5 06:30:12 10° SSW 06:35:21 83° WNW 06:40:32 10° NNE
